Flag for U.S.A. Weather past 2 weeks in Providence, Rhode Island, U.S.A.

Now
74 °F

Scattered clouds.


Feels Like: 77 °F
Forecast: 54 / 75 °F
Wind: 15 mph from Southeast

Location: Green State Airport

Current Time: Aug 30, 2014 at 3:06:17 PM

Latest Report: Aug 30, 2014 at 1:51 PM


Visibility: 10 mi

Pressure: 30.25 "Hg

Humidity: 60%

Dew point: 59 °F

Location of ProvidenceLocation

Historic Weather in Providence — Graph

°F

Providence temperature yesterday

Maximum temperature yesterday: 75 °F (at 12:51 PM)
Minimum temperature yesterday: 58 °F (at 5:51 AM)
Average temperature yesterday: 66 °F

Past Weeks' High & Low Weather Summary

 TemperatureHumidityPressure
High88 °F (Aug 25, 2:51 PM)97% (Aug 20, 4:51 AM)30.32 "Hg (Aug 20, 4:51 AM)
Low55 °F (Aug 19, 4:51 AM)36% (Aug 16, 2:51 PM)29.78 "Hg (Aug 17, 3:51 PM)
Average69 °F68%30.02 "Hg
* Reported Aug 15 12:51 PM — Aug 30 12:51 PM, Providence, Weather by CustomWeather, © 2014

Note: Actual official high and low records may vary slightly from our data, if they occured in-between our weather recording intervals... More about our weather records

Advertising

Providence weather history for previous 24 hours

 ConditionsComfort  
Time TempWeatherWind HumidityBarometerVisibility
12:51 PM
Aug 30
72 °FScattered clouds.14 mph61%30.27 "Hg10 mi
11:51 AM72 °FScattered clouds.10 mph64%30.29 "Hg10 mi
10:51 AM71 °FScattered clouds.7 mph61%30.30 "Hg10 mi
9:51 AM69 °FPassing clouds.12 mph66%30.30 "Hg10 mi
8:51 AM66 °FPassing clouds.8 mph75%30.32 "Hg10 mi
7:51 AM60 °FScattered clouds.No wind86%30.32 "Hg10 mi
6:51 AM56 °FPassing clouds.No wind90%30.32 "Hg10 mi
5:51 AM56 °FPassing clouds.No wind90%30.31 "Hg10 mi
4:51 AM56 °FClear.3 mph93%30.29 "Hg10 mi
3:51 AM57 °FClear.3 mph90%30.29 "Hg10 mi
2:51 AM57 °FClear.No wind90%30.29 "Hg10 mi
1:51 AM59 °FClear.3 mph90%30.29 "Hg10 mi
12:51 AM60 °FClear.5 mph86%30.29 "Hg10 mi
11:51 PM
Aug 29
59 °FPassing clouds.No wind87%30.27 "Hg10 mi
10:51 PM61 °FPassing clouds.3 mph78%30.28 "Hg10 mi
9:51 PM62 °FPassing clouds.5 mph75%30.27 "Hg10 mi
8:51 PM64 °FPassing clouds.3 mph70%30.25 "Hg10 mi
7:51 PM66 °FScattered clouds.7 mph70%30.24 "Hg10 mi
6:51 PM69 °FScattered clouds.6 mph63%30.22 "Hg10 mi
5:51 PM71 °FScattered clouds.9 mph59%30.20 "Hg10 mi
4:51 PM73 °FScattered clouds.12 mph55%30.19 "Hg10 mi
Weather by CustomWeather, © 2014

See weather overviewHow to use our weather pages